This is the latest recevied weather packets stored in our database for station/object K0FJ-1. If no packets are shown the sender has not sent any weather packets the latest 10 day(s).
| Time | Temp. | Humidity | Pressure | Rain* | Wind** | Luminosity | Snow |
|---|---|---|---|---|---|---|---|
| 1787632803 | 25° C | 73% | 1018.9 hPa | 0 mm | - | - | - |
| 1787632503 | 25.56° C | 72% | 1018.7 hPa | 0 mm | - | - | - |
| 1787632203 | 25.56° C | 72% | 1018.7 hPa | 0 mm | - | - | - |
| 1787631903 | 25.56° C | 71% | 1018.7 hPa | 0 mm | - | - | - |
| 1787631603 | 25.56° C | 71% | 1018.7 hPa | 0 mm | - | - | - |
| 1787631303 | 25.56° C | 71% | 1018.8 hPa | 0 mm | - | - | - |
| 1787631003 | 25.56° C | 70% | 1018.8 hPa | 0 mm | - | - | - |
| 1787630703 | 26.11° C | 70% | 1018.8 hPa | 0 mm | - | - | - |
| 1787630403 | 26.11° C | 69% | 1018.9 hPa | 0 mm | - | - | - |
| 1787630103 | 26.11° C | 69% | 1018.8 hPa | 0 mm | - | - | - |
| 1787629803 | 26.11° C | 68% | 1018.7 hPa | 0 mm | - | - | - |
| 1787629503 | 26.67° C | 68% | 1018.6 hPa | 0 mm | - | - | - |
| 1787629203 | 26.67° C | 68% | 1018.7 hPa | 0 mm | - | - | - |
| 1787628903 | 26.67° C | 68% | 1018.6 hPa | 0 mm | - | - | - |
| 1787628603 | 26.67° C | 67% | 1018.5 hPa | 0 mm | - | - | - |
| 1787628303 | 26.67° C | 67% | 1018.4 hPa | 0 mm | - | - | - |
| 1787628003 | 26.67° C | 68% | 1018.4 hPa | 0 mm | - | - | - |
| 1787627703 | 26.11° C | 69% | 1018.4 hPa | 0 mm | - | - | - |
| 1787627403 | 26.11° C | 69% | 1018.3 hPa | 0 mm | - | - | - |
| 1787627103 | 26.11° C | 68% | 1018.3 hPa | 0 mm | - | - | - |
| 1787626803 | 26.67° C | 68% | 1018.2 hPa | 0 mm | - | - | - |
| 1787626503 | 26.67° C | 67% | 1018.2 hPa | 0 mm | - | - | - |
| 1787626203 | 26.67° C | 66% | 1018.2 hPa | 0 mm | - | - | - |
| 1787625903 | 26.67° C | 65% | 1018.2 hPa | 0 mm | - | - | - |
| 1787625603 | 27.22° C | 64% | 1018.1 hPa | 0 mm | - | - | - |
* Rain latest hour (hover to see other rain measurements)
** Current wind speed in m/s (hover to see current wind gust speed)